FDX5025 VHHH-KONT

Flight info

Callsign FDX5025
Flight time N/A
Altitude 29100
Route BEKOL A461 SHL G471 EGEDA/K0933S0920 G471 PLT/K0935S0890 A599 SHR/K0928S0950 A599 PUD A593 AKARA/K0926F310 A593 LAMEN/N0500F310 A593 SADLI Y590 BEDAR Y591 FUE Y23 OOITA Y40 MYE Y33 LABEL Y121 SWING/N0495F330 Y88 DAIGO Y886 ADNAP OTR5 KALNA DCT KALIG DCT CUTEE/N0484F350 DCT CARTO DCT 50N180E 50N170W 49N160W/N0488F370 48N150W 46N140W 42N130W/N0480F390 DCT VESPA DCT ENI DCT OAK J1 AVE J6 PMD ZIGGY8
Aircraft MD11/H-SDE1E2E3FGHIJ2J3J4J5M1RWXY/LB1D1

Departure

Time N/A
Airport Hong Kong International Airport (VHHH)

Arrival

Time 2026-05-07 01:39
Airport Ontario International Airport (KONT)
Time Latitude Longitude Altitude Speed Heading
2026-05-07 01:03 42.31893 -130.64999 35325 ft 486 kts 121°
2026-05-07 01:03 42.03245 -130.03396 35310 ft 486 kts 121°
2026-05-07 01:04 41.74643 -129.42978 35289 ft 480 kts 121°
2026-05-07 01:04 41.61067 -129.12250 34967 ft 481 kts 119°
2026-05-07 01:04 41.47346 -128.81504 35360 ft 483 kts 120°
2026-05-07 01:05 41.19447 -128.20212 35835 ft 484 kts 121°
2026-05-07 01:05 41.05386 -127.89673 37249 ft 485 kts 122°
2026-05-07 01:05 40.91382 -127.59585 38883 ft 486 kts 123°
2026-05-07 01:05 40.77091 -127.29372 39314 ft 486 kts 123°
2026-05-07 01:06 40.62781 -126.99193 39295 ft 486 kts 124°
2026-05-07 01:06 40.36975 -126.36781 39267 ft 487 kts 119°
2026-05-07 01:07 40.11553 -125.74271 39259 ft 486 kts 119°
2026-05-07 01:07 39.94548 -125.33018 39260 ft 488 kts 119°
2026-05-07 01:08 39.69143 -124.72618 39179 ft 489 kts 120°
2026-05-07 01:08 39.42680 -124.10742 39164 ft 491 kts 120°
2026-05-07 01:09 39.15775 -123.49217 39086 ft 492 kts 120°
2026-05-07 01:09 39.00560 -123.20188 39098 ft 488 kts 139°
2026-05-07 01:09 38.76608 -123.04586 39086 ft 487 kts 155°
2026-05-07 01:10 38.31041 -122.67788 39133 ft 487 kts 148°
2026-05-07 01:10 37.92515 -122.37291 39134 ft 487 kts 148°
2026-05-07 01:11 37.44959 -121.91851 39132 ft 486 kts 137°
2026-05-07 01:11 37.24973 -121.69698 39102 ft 485 kts 137°
2026-05-07 01:12 37.04754 -121.47305 39108 ft 485 kts 137°
2026-05-07 01:12 36.84650 -121.25240 39113 ft 483 kts 136°
2026-05-07 01:13 36.64396 -121.03125 39108 ft 483 kts 136°
2026-05-07 01:13 36.48886 -120.86299 39100 ft 482 kts 136°
2026-05-07 01:14 36.23867 -120.59411 39091 ft 482 kts 136°
2026-05-07 01:14 36.03710 -120.37873 39085 ft 480 kts 136°
2026-05-07 01:15 35.83471 -120.16398 39074 ft 480 kts 136°
2026-05-07 01:15 35.63317 -119.94896 39065 ft 474 kts 127°
2026-05-07 01:15 35.56811 -119.81115 39074 ft 466 kts 113°
2026-05-07 01:16 35.50625 -119.67101 39070 ft 467 kts 115°
2026-05-07 01:16 35.37962 -119.39473 39064 ft 465 kts 115°
2026-05-07 01:17 35.25225 -119.11878 39067 ft 466 kts 115°
2026-05-07 01:17 35.12822 -118.85331 36253 ft 468 kts 115°
2026-05-07 01:17 35.09578 -118.78384 33539 ft 475 kts 115°
2026-05-07 01:18 35.06283 -118.71348 30760 ft 473 kts 116°
2026-05-07 01:18 35.02975 -118.64432 28750 ft 461 kts 119°
2026-05-07 01:18 35.00931 -118.60956 28329 ft 465 kts 124°
2026-05-07 01:18 34.98883 -118.57856 28199 ft 472 kts 126°
2026-05-07 01:19 34.96765 -118.54782 28155 ft 474 kts 126°
2026-05-07 01:19 34.92531 -118.48689 28125 ft 474 kts 126°
2026-05-07 01:20 34.88298 -118.42530 28046 ft 474 kts 126°
2026-05-07 01:20 34.84085 -118.36354 28058 ft 474 kts 126°
2026-05-07 01:21 34.79865 -118.30169 28056 ft 475 kts 126°
2026-05-07 01:21 34.77760 -118.27090 27739 ft 468 kts 126°
2026-05-07 01:21 34.75683 -118.24057 26470 ft 466 kts 126°
2026-05-07 01:21 34.73649 -118.21091 25529 ft 458 kts 126°
2026-05-07 01:22 34.71618 -118.18131 24952 ft 457 kts 126°
2026-05-07 01:22 34.69599 -118.15188 24374 ft 452 kts 126°
2026-05-07 01:22 34.67590 -118.12262 23781 ft 448 kts 126°
2026-05-07 01:22 34.65598 -118.09364 23120 ft 444 kts 126°
2026-05-07 01:23 34.63633 -118.06494 22508 ft 439 kts 124°
2026-05-07 01:23 34.61887 -118.03513 21884 ft 429 kts 118°
2026-05-07 01:23 34.60390 -118.00464 21249 ft 423 kts 115°
2026-05-07 01:23 34.58985 -117.97353 20614 ft 418 kts 114°
2026-05-07 01:24 34.57623 -117.94262 19991 ft 414 kts 114°
2026-05-07 01:24 34.56271 -117.91199 19380 ft 410 kts 114°
2026-05-07 01:24 34.54918 -117.88164 18756 ft 407 kts 114°
2026-05-07 01:24 34.53571 -117.85169 18148 ft 403 kts 115°
2026-05-07 01:25 34.52227 -117.82203 17486 ft 399 kts 115°
2026-05-07 01:25 34.50894 -117.79273 16935 ft 395 kts 115°
2026-05-07 01:25 34.49569 -117.76368 16606 ft 392 kts 115°
2026-05-07 01:25 34.48281 -117.73550 16488 ft 377 kts 115°
2026-05-07 01:26 34.47044 -117.70861 16375 ft 354 kts 115°
2026-05-07 01:26 34.45885 -117.68342 16255 ft 335 kts 115°
2026-05-07 01:26 34.44783 -117.65946 16105 ft 320 kts 115°
2026-05-07 01:26 34.43711 -117.63605 15838 ft 315 kts 114°
2026-05-07 01:27 34.42648 -117.61289 15383 ft 314 kts 115°
2026-05-07 01:27 34.41588 -117.58994 14809 ft 311 kts 114°
2026-05-07 01:27 34.40537 -117.56721 14244 ft 308 kts 114°
2026-05-07 01:27 34.39493 -117.54461 13692 ft 306 kts 114°
2026-05-07 01:28 34.38472 -117.52256 13106 ft 304 kts 115°
2026-05-07 01:28 34.37443 -117.50033 12562 ft 302 kts 115°
2026-05-07 01:28 34.36421 -117.47822 12029 ft 301 kts 115°
2026-05-07 01:28 34.35400 -117.45615 11512 ft 300 kts 115°
2026-05-07 01:29 34.34385 -117.43423 10988 ft 298 kts 116°
2026-05-07 01:29 34.33374 -117.41235 10492 ft 297 kts 116°
2026-05-07 01:29 34.32373 -117.39070 10072 ft 294 kts 116°
2026-05-07 01:29 34.31368 -117.36913 9536 ft 295 kts 118°
2026-05-07 01:30 34.30113 -117.34961 9118 ft 295 kts 135°
2026-05-07 01:30 34.28379 -117.33671 8695 ft 295 kts 156°
2026-05-07 01:30 34.26412 -117.32902 8135 ft 299 kts 163°
2026-05-07 01:30 34.24383 -117.32286 7613 ft 301 kts 164°
2026-05-07 01:31 34.22366 -117.31706 7117 ft 302 kts 164°
2026-05-07 01:31 34.20361 -117.31128 6669 ft 291 kts 165°
2026-05-07 01:31 34.18402 -117.30556 6329 ft 290 kts 164°
2026-05-07 01:31 34.16457 -117.29980 5957 ft 285 kts 164°
2026-05-07 01:32 34.14536 -117.29434 5641 ft 282 kts 169°
2026-05-07 01:32 34.12579 -117.29341 5431 ft 286 kts 188°
2026-05-07 01:32 34.10775 -117.30221 5094 ft 277 kts 215°
2026-05-07 01:32 34.09612 -117.31375 4819 ft 268 kts 223°
2026-05-07 01:33 34.08570 -117.32604 4550 ft 253 kts 226°
2026-05-07 01:33 34.07398 -117.34045 4375 ft 236 kts 226°
2026-05-07 01:33 34.06347 -117.35421 4366 ft 205 kts 234°
2026-05-07 01:33 34.05751 -117.36833 4058 ft 181 kts 258°
2026-05-07 01:34 34.05610 -117.38271 3683 ft 165 kts 266°
2026-05-07 01:34 34.05523 -117.39589 3545 ft 154 kts 266°
2026-05-07 01:34 34.05480 -117.40860 3497 ft 149 kts 270°
2026-05-07 01:34 34.05467 -117.42113 3488 ft 150 kts 269°
2026-05-07 01:35 34.05460 -117.42946 3401 ft 149 kts 270°
2026-05-07 01:35 34.05453 -117.44161 3200 ft 144 kts 269°
2026-05-07 01:35 34.05463 -117.45757 2956 ft 142 kts 269°
2026-05-07 01:35 34.05471 -117.46922 2774 ft 139 kts 268°
2026-05-07 01:36 34.05477 -117.48063 2578 ft 136 kts 269°
2026-05-07 01:36 34.05481 -117.49188 2417 ft 132 kts 269°
2026-05-07 01:36 34.05482 -117.49914 2306 ft 130 kts 268°
2026-05-07 01:36 34.05471 -117.51013 2121 ft 133 kts 267°
2026-05-07 01:37 34.05471 -117.52149 1948 ft 138 kts 269°
2026-05-07 01:37 34.05484 -117.53322 1795 ft 141 kts 268°
2026-05-07 01:37 34.05489 -117.54502 1635 ft 138 kts 267°
2026-05-07 01:37 34.05480 -117.55644 1419 ft 136 kts 263°
2026-05-07 01:38 34.05490 -117.57171 1184 ft 137 kts 265°
2026-05-07 01:38 34.05492 -117.57945 1048 ft 136 kts 267°
2026-05-07 01:38 34.05501 -117.59026 952 ft 112 kts 266°
2026-05-07 01:38 34.05496 -117.59796 950 ft 71 kts 271°
2026-05-07 01:39 34.05497 -117.60245 950 ft 37 kts 270°
2026-05-07 01:39 34.05509 -117.60486 952 ft 15 kts 292°
2026-05-07 01:39 34.05567 -117.60559 951 ft 15 kts 316°
2026-05-07 01:39 34.05606 -117.60606 952 ft 0 kts 315°
2026-05-07 01:40 34.05607 -117.60606 952 ft 0 kts 315°
2026-05-07 01:40 34.05609 -117.60609 952 ft 2 kts 315°
2026-05-07 01:41 34.05623 -117.60626 952 ft 7 kts 315°
2026-05-07 01:41 34.05676 -117.60692 951 ft 15 kts 314°
2026-05-07 01:41 34.05758 -117.60793 950 ft 18 kts 314°
2026-05-07 01:41 34.05800 -117.60893 951 ft 8 kts 264°
2026-05-07 01:42 34.05799 -117.61039 952 ft 9 kts 269°
2026-05-07 01:42 34.05799 -117.61119 952 ft 6 kts 269°
2026-05-07 01:42 34.05799 -117.61175 951 ft 7 kts 269°
2026-05-07 01:42 34.05798 -117.61238 951 ft 8 kts 269°
2026-05-07 01:43 34.05797 -117.61308 951 ft 9 kts 269°
2026-05-07 01:43 34.05799 -117.61378 951 ft 9 kts 271°
2026-05-07 01:43 34.05799 -117.61485 951 ft 16 kts 270°
2026-05-07 01:43 34.05799 -117.61629 952 ft 19 kts 274°
2026-05-07 01:44 34.05805 -117.61744 949 ft 2 kts 292°
2026-05-07 01:44 34.05828 -117.61767 952 ft 7 kts 331°
2026-05-07 01:44 34.05868 -117.61814 949 ft 2 kts 285°
2026-05-07 01:44 34.05872 -117.61875 950 ft 7 kts 268°
2026-05-07 01:45 34.05871 -117.61967 952 ft 7 kts 271°
2026-05-07 01:45 34.05876 -117.62000 949 ft 2 kts 292°
2026-05-07 01:45 34.05892 -117.62013 952 ft 3 kts 340°
2026-05-07 01:45 34.05933 -117.62019 950 ft 5 kts 357°
2026-05-07 01:46 34.05950 -117.62020 952 ft 2 kts 358°